Williamsburg, VA

6:53 AM EDT on May 27, 2017 (GMT -0400)
Williamsburg-jamestown

Weather History for KJGG - January, 2013

Change the Weather History Date:

Friday, January 18, 2013

  Actual Average Record
Temperature  
Mean Temperature 36 °F -  
Max Temperature 44 °F 46 °F 70 °F (1990)
Min Temperature 28 °F 27 °F 3 °F (1957)
Degree Days  
Heating Degree Days 29    
Moisture  
Dew Point 30 °F    
Average Humidity 82    
Maximum Humidity 100    
Minimum Humidity 46    
Precipitation  
Precipitation 0.06 in - - ()
Sea Level Pressure  
Sea Level Pressure 30.40 in    
Wind  
Wind Speed 5 mph (NNW)    
Max Wind Speed 14 mph    
Max Gust Speed 20 mph    
Visibility 8 miles    
Events      
Averages and records for this station are not official NWS values.
T = Trace of Precipitation, MM = Missing Value Source: NWS Daily Summary

Daily Weather History Graph

Daily Weather History Graph

Search for Another Location

Airport or City:

Trip Planner

Search our weather history database for the weather conditions in past years. The results will help you decide how hot, cold, wet, or windy it might be!

Date:

Astronomy

Jan. 18, 2013 Rise Set
Actual Time 7:18 AM EST 5:16 PM EST
Civil Twilight 6:50 AM EST 5:44 PM EST
Nautical Twilight 6:18 AM EST 6:16 PM EST
Astronomical Twilight 5:47 AM EST 6:47 PM EST
Moon 11:06 AM EST (1/18) No Moon Set
Length of Visible Light 10h 54m
Length of Day
9h 58m
Waxing Crescent, 47% of the Moon is Illuminated
Jan 18
Waxing Crescent
Jan 18
First Quarter
Jan 26
Full
Feb 3
Last Quarter
Feb 10
New

Hourly Weather History & Observations

Time (EST) Temp. Windchill Dew Point Humidity Pressure Visibility Wind Dir Wind Speed Gust Speed Precip Events Conditions
12:15 AM 33.8 °F - 32.0 °F 93% 30.07 in 3.0 mi Calm Calm - 0.02 in   Overcast
12:35 AM 33.8 °F - 33.8 °F 100% 30.09 in 5.0 mi Calm Calm - 0.04 in   Overcast
12:55 AM 33.8 °F 29.6 °F 33.8 °F 100% 30.11 in 4.0 mi NNW 4.6 mph - 0.05 in   Overcast
1:15 AM 33.8 °F 27.7 °F 33.8 °F 100% 30.13 in 4.0 mi NNW 6.9 mph - N/A   Overcast
1:35 AM 33.8 °F 29.6 °F 33.8 °F 100% 30.13 in 7.0 mi NNW 4.6 mph - 0.01 in   Overcast
1:55 AM 33.8 °F 28.6 °F 33.8 °F 100% 30.14 in 7.0 mi NW 5.8 mph - 0.01 in   Overcast
2:15 AM 33.8 °F 29.6 °F 33.8 °F 100% 30.14 in 5.0 mi NNW 4.6 mph - N/A   Overcast
2:35 AM 33.8 °F 28.6 °F 33.8 °F 100% 30.15 in 7.0 mi NW 5.8 mph - N/A   Scattered Clouds
2:55 AM 33.8 °F 25.8 °F 33.8 °F 100% 30.18 in 7.0 mi NW 10.4 mph - N/A   Scattered Clouds
3:15 AM 33.8 °F 27.0 °F 33.8 °F 100% 30.18 in 4.0 mi WNW 8.1 mph - N/A   Overcast
3:35 AM 33.8 °F 27.0 °F 33.8 °F 100% 30.19 in 5.0 mi NW 8.1 mph - N/A   Overcast
3:55 AM 33.8 °F 27.7 °F 33.8 °F 100% 30.19 in 5.0 mi WNW 6.9 mph - N/A   Mostly Cloudy
4:15 AM 33.8 °F 27.7 °F 32.0 °F 93% 30.18 in 4.0 mi NW 6.9 mph - N/A   Scattered Clouds
4:35 AM 33.8 °F 27.7 °F 32.0 °F 93% 30.19 in 7.0 mi WNW 6.9 mph - N/A   Clear
4:55 AM 33.8 °F 27.7 °F 32.0 °F 93% 30.21 in 7.0 mi NW 6.9 mph - N/A   Clear
5:15 AM 33.8 °F 27.7 °F 32.0 °F 93% 30.23 in 7.0 mi WNW 6.9 mph - N/A   Clear
5:35 AM 33.8 °F 28.6 °F 32.0 °F 93% 30.24 in 4.0 mi WNW 5.8 mph - N/A   Clear
5:55 AM 33.8 °F 27.7 °F 32.0 °F 93% 30.26 in 4.0 mi WNW 6.9 mph - N/A   Clear
6:15 AM 33.8 °F 27.7 °F 30.2 °F 87% 30.27 in 5.0 mi WNW 6.9 mph - N/A   Clear
6:35 AM 32.0 °F 26.4 °F 30.2 °F 93% 30.28 in 4.0 mi WNW 5.8 mph - N/A   Clear
6:55 AM 32.0 °F 26.4 °F 30.2 °F 93% 30.29 in 3.0 mi West 5.8 mph - N/A   Clear
7:15 AM 32.0 °F 24.8 °F 30.2 °F 93% 30.31 in 2.0 mi WNW 8.1 mph - N/A   Clear
7:35 AM 32.0 °F 24.8 °F 30.2 °F 93% 30.33 in 2.5 mi WNW 8.1 mph - N/A   Scattered Clouds
7:55 AM 33.8 °F 25.3 °F 32.0 °F 93% 30.35 in 2.5 mi WNW 11.5 mph - N/A   Mostly Cloudy
8:15 AM 33.8 °F 30.8 °F 32.0 °F 93% 30.37 in 2.5 mi WNW 3.5 mph - N/A   Mostly Cloudy
8:35 AM 33.8 °F 27.7 °F 32.0 °F 93% 30.38 in 5.0 mi NW 6.9 mph - N/A   Scattered Clouds
8:55 AM 33.8 °F - 33.8 °F 100% 30.40 in 7.0 mi Calm Calm - N/A   Clear
9:15 AM 35.6 °F 30.7 °F 33.8 °F 93% 30.42 in 7.0 mi NNW 5.8 mph - N/A   Clear
9:35 AM 35.6 °F 30.7 °F 35.6 °F 100% 30.44 in 10.0 mi North 5.8 mph - N/A   Clear
9:55 AM 37.4 °F 32.1 °F 35.6 °F 93% 30.45 in 10.0 mi North 6.9 mph - N/A   Clear
10:15 AM 37.4 °F 32.1 °F 35.6 °F 93% 30.47 in 10.0 mi North 6.9 mph - N/A   Clear
10:35 AM 39.2 °F 33.0 °F 33.8 °F 81% 30.47 in 10.0 mi North 9.2 mph 17.3 mph N/A   Clear
10:55 AM 39.2 °F 31.2 °F 32.0 °F 75% 30.47 in 10.0 mi North 13.8 mph 19.6 mph N/A   Clear
11:15 AM 41.0 °F 34.3 °F 30.2 °F 65% 30.47 in - North 11.5 mph 17.3 mph N/A   Clear
11:35 AM 42.8 °F 38.6 °F 30.2 °F 61% 30.47 in 10.0 mi North 6.9 mph - N/A   Clear
11:55 AM 42.8 °F 38.0 °F 30.2 °F 61% 30.46 in 10.0 mi North 8.1 mph - N/A   Clear
12:15 PM 44.6 °F 40.7 °F 28.4 °F 53% 30.46 in 10.0 mi North 6.9 mph 16.1 mph N/A   Clear
12:35 PM 44.6 °F 41.4 °F 28.4 °F 53% 30.46 in 10.0 mi NNE 5.8 mph 19.6 mph N/A   Clear
12:55 PM 44.6 °F 41.4 °F 26.6 °F 49% 30.46 in 10.0 mi NNE 5.8 mph - N/A   Clear
1:15 PM 44.6 °F 38.4 °F 24.8 °F 46% 30.47 in 10.0 mi NNW 12.7 mph - N/A   Clear
1:35 PM 44.6 °F 40.7 °F 24.8 °F 46% 30.47 in 10.0 mi North 6.9 mph - N/A   Clear
1:55 PM 44.6 °F - 24.8 °F 46% 30.47 in 10.0 mi Calm Calm - N/A   Clear
2:15 PM 44.6 °F 40.7 °F 24.8 °F 46% 30.47 in 10.0 mi NNE 6.9 mph - N/A   Clear
2:35 PM 44.6 °F 39.7 °F 26.6 °F 49% 30.48 in 10.0 mi North 9.2 mph - N/A   Clear
2:55 PM 42.8 °F 38.0 °F 24.8 °F 49% 30.48 in 10.0 mi North 8.1 mph - N/A   Clear
3:15 PM 42.8 °F 38.0 °F 24.8 °F 49% 30.49 in 10.0 mi NNW 8.1 mph - N/A   Clear
3:35 PM 44.6 °F - 24.8 °F 46% 30.50 in 10.0 mi Calm Calm - N/A   Clear
3:55 PM 44.6 °F 42.2 °F 26.6 °F 49% 30.51 in 10.0 mi ENE 4.6 mph - N/A   Clear
4:15 PM 42.8 °F 41.1 °F 26.6 °F 53% 30.51 in 10.0 mi NNE 3.5 mph - N/A   Clear
4:35 PM 42.8 °F 40.1 °F 26.6 °F 53% 30.52 in 10.0 mi North 4.6 mph - N/A   Clear
4:55 PM 41.0 °F 37.1 °F 26.6 °F 57% 30.52 in 10.0 mi North 5.8 mph - N/A   Clear
5:15 PM 37.4 °F - 26.6 °F 65% 30.52 in 10.0 mi Calm Calm - N/A   Clear
5:35 PM 35.6 °F - 24.8 °F 65% 30.53 in 10.0 mi Calm Calm - N/A   Clear
5:55 PM 35.6 °F - 26.6 °F 70% 30.53 in 10.0 mi Calm Calm - N/A   Clear
6:15 PM 33.8 °F - 26.6 °F 75% 30.55 in 10.0 mi Calm Calm - N/A   Clear
6:35 PM 33.8 °F - 26.6 °F 75% 30.55 in 10.0 mi Calm Calm - N/A   Clear
6:55 PM 32.0 °F - 28.4 °F 87% 30.55 in 10.0 mi Calm Calm - N/A   Clear
7:15 PM 32.0 °F - 28.4 °F 87% 30.55 in 10.0 mi Calm Calm - N/A   Clear
7:35 PM 30.2 °F - 28.4 °F 93% 30.55 in 10.0 mi Calm Calm - N/A   Clear
7:55 PM 30.2 °F - 28.4 °F 93% 30.55 in 10.0 mi Calm Calm - N/A   Clear
8:15 PM 30.2 °F - 28.4 °F 93% 30.55 in 10.0 mi Calm Calm - N/A   Clear
8:35 PM 30.2 °F - 28.4 °F 93% 30.55 in 10.0 mi Calm Calm - N/A   Clear
8:55 PM 30.2 °F - 28.4 °F 93% 30.55 in 10.0 mi Calm Calm - N/A   Clear
9:15 PM 30.2 °F - 28.4 °F 93% 30.56 in 10.0 mi Calm Calm - N/A   Clear
9:35 PM 30.2 °F - 28.4 °F 93% 30.55 in 10.0 mi Calm Calm - N/A   Clear
9:55 PM 30.2 °F - 28.4 °F 93% 30.55 in 10.0 mi Calm Calm - N/A   Clear
10:35 PM 28.4 °F - 26.6 °F 93% 30.54 in 10.0 mi Calm Calm - N/A   Clear
10:55 PM 28.4 °F 24.6 °F 28.4 °F 100% 30.53 in 10.0 mi South 3.5 mph - N/A   Clear
11:15 PM 28.4 °F 22.2 °F 28.4 °F 100% 30.53 in 10.0 mi South 5.8 mph - N/A   Clear
11:35 PM 30.2 °F 24.3 °F 28.4 °F 93% 30.52 in 10.0 mi South 5.8 mph - N/A   Clear
11:55 PM 30.2 °F 24.3 °F 28.4 °F 93% 30.51 in 10.0 mi South 5.8 mph - N/A   Clear